Погода Илирней

Погода Илирней : погода сейчас, прогноз погоды и архив. Всё, что Вы хотите узнать о погоде Илирней!

Хотите узнать прогноз погоды Илирней? Тогда Вам сюда: Погода Илирней

Поиск расширенной информации на нашем сайте:

Другие новости

Новости СМИ2

Главная страница сайта

Новости сайта

03.07.2017

Напоминаем, что на нашем специализированном сайте Метеоцентр.Азия вы можете получить высокодетализированные автоматические прогнозы погоды по пунктам России, СНГ и мира в авиационном формате (включающие направление и скорость ветра, видимость, явления погоды, количество и форму облачности, нижнюю и верхнюю границу облачности).

Рекомендуем: Что такое страховка зеленая карта.

Погода Илирней - сегодня

Время (UTC), дата Ветер
(°,м/с) 
Видим.   Явления Облачность Т
(°С)
Тd
(°С)
f(%) Тe
(°С)
Pmin
(гПа)
dP
(гПа)
Po
(мм)
O2
(г/м3)
Тmin Tmax R s Состояние
почвы
18 22.07.17 тихо () {03}  20000 м    10/0 средняя 
[Ac und]
+11.1 +9.5 90 +12  997.2  -2.2  717  276           
21 22.07.17 тихо () {03}  20000 м  слаб. дождь  10/0 средняя 
[As op]
+12.4 +11.2 92 +16  994.7  -2.1  715  274  +9.8    0.2    влажная 
00 23.07.17 320 (СЗ) 1{03}  20000 м  слаб. дождь  10/0 средняя 
[As op]
+12.4 +11.4 94 +18  992.8  -1.8  714  273           
03 23.07.17 320 (СЗ) 2{07}  20000 м  слаб. дождь  10/0 средняя 
[As op]
+11.8 +10.4 91 +15  992.1  -0.7  713  274           
06 23.07.17 310 (СЗ) 3{07}  20000 м  слаб. дождь  10/0 средняя 
[As op]
+10.9 +9.3 90 +12  992.8  0.4  714  275           
09 23.07.17 290 (З) 3{08}  20000 м  слаб. дождь  10/0 средняя 
[As op]
+9.6 +8 90 +9  994.7  1.6  715  277    +12.4     
12 23.07.17 330 (СЗ) 1{07}  20000 м  слаб. дождь  10/0 средняя 
[As op]
+8.6 +6.7 88 +10  996.8  1.9  716  279           
15 23.07.17 тихо () {07}  20000 м  слаб. дождь  10/0 средняя 
[As op]
+7.8 +5.1 83 +8  999.2  2.2  718  280           
18 23.07.17 290 (З) 2{05}  20000 м  {дождь}  8/3 600 м средняя 
[Sc|Ac trans]
+8.6 +7.1 90 +9  1000.4  1.3  719  280           
21 23.07.17 300 (СЗ) 1{06}  20000 м    8/8 600 м 
[Sc]
+11.6 +7.7 77 +13  1000.6  0.6  719  277  +7.8      влажная 
00 24.07.17 300 (СЗ) 3{06}  20000 м    6/0 средняя 
[Ac trans]
+14.7 +5.1 53 +15  1000.6  0.4  720  274           
03 24.07.17 220 (ЮЗ) 1{06}  20000 м    10/0 средняя 
[Ac und]
+15.8 +4.8 48 +17  1000.6  0.2  720  273           
06 24.07.17 290 (З) 2{08}  20000 м  {дождь}  10/0 средняя 
[Ac und]
+11.5 +8.5 82 +12  1003  1.7  721  277           
09 24.07.17 290 (З) 3{09}  20000 м    8/0 средняя 
[Ac trans]
+11.4 +7 74 +11  1005  1.8  723  278    +16.8  0.4     
12 24.07.17 260 (З) 6{10}  20000 м    10/0 средняя, верхняя 
[Ac trans|Cs]
+10.1 +6.5 78 +9  1007.7  2.4  724  280           
15 24.07.17 270 (З) 5{11}  20000 м    10/0 средняя 
[Ac und]
+8.2 +4.8 79 +7  1010.2  2.2  726  283           
18 24.07.17 270 (З) 5{11}  20000 м    8/0 средняя 
[Ac trans]
+7.1 +3 75 +5  1013  2.5  728  285           
21 24.07.17 210 (ЮЗ) 6{11}  20000 м    8/0 средняя 
[Ac trans]
+8.2 +0.6 59 +6  1014.1  1.2  729  285  +7        сухая 
00 25.07.17 270 (З) 5{12}  20000 м    8/0 средняя 
[Ac trans]
+8.9 +0.2 54 +7  1015.4  1.3  730  285           
03 25.07.17 290 (З) 4{11}  20000 м    8/0 средняя 
[Ac trans]
+9.8 -0.2 50 +9  1016.3  0.9  730  284           
06 25.07.17 020 (С) 2{09}  20000 м    6/0 средняя 
[Ac trans]
+10.6 +0.2 49 +11  1016.2  0.1  731  283           
09 25.07.17 010 (С) 1{05}  20000 м    3/0 средняя 
[Ac trans]
+10.7 +0.9 51 +12  1016.5  0.3  731  283    +11.5       
12 25.07.17 130 (ЮВ) 1{02}  20000 м    ясно 
+1.5 +1 96 +2  1018.3  0.4  731  293           
15 25.07.17 130 (ЮВ) 2{05}  20000 м    ясно 
+1.5 +1 96 +1  1018  -0.3  731  293           
18 25.07.17 110 (В) 1{05}  20000 м    ясно 
+9.7 +4.5 70 +11  1015.9  -0.7  730  283           
Время (UTC), дата Ветер
(°,м/с) 
Видим.   Явления Облачность Т
(°С)
Тd
(°С)
f(%) Тe
(°С)
Pmin
(гПа)
dP
(гПа)
Po
(мм)
O2
(г/м3)
Тmin Tmax R s Состояние
почвы

Для получения пояснительной информации подведите курсор к названию столбца.

ПОГОДА Илирней - архив

Всё, что Вы хотите узнать о погоде Илирней - удобно и подробно!

Выберите нужную дату (начиная с 1 января 2015* года) и нажмите кнопку "Найти".
Будут отображены архивные сводки погоды по пункту Илирней, начиная с указанной даты.


Отображать данные в формате CSV (для использования в таблицах Excel)


Внимание! Наш архив погоды предназначен исключительно для личного некоммерческого использования в познавательных целях. Если Вам необходимы официальные справки о состоянии погоды (для производственных, юридических, коммерческих и т.п. целей), обращайтесь в органы Росгидромета.

*Примечание: данная дата относится к архиву по метеостанциям СССР (Россия, СНГ, Балтия).
Архив по метеостанциям Зарубежной Европы и Азии (кроме Китая) хранится 10 дней, по другим регионам земного шара (Китай, Африка, Америка, Австралия, Океания) - 1 день.

Илирней - район местоположения метеостанции


Название, широта, долгота, высота метеостанции:
Илирней 67.2°ш. 168°д. 353 м над ур. моря [Российская Федерация]

Дополнительная информация

В oтличие oт бoльшинства пoгoдных сайтoв мы публикуем пoдрoбную метеoинфoрмацию в детальнoм прoфессиoнальнoм фoрмате.

Характеристики температуры и влажнoсти вoздуха измеряются на высoте 2 м в тени вдали oт зданий и деревьев.
Скoрoсть ветра измеряется на высoте 10 м (на урoвне рoста челoвека скoрoсть ветра ниже в 1.5-2 раза). Если метеoстанция нахoдится в гoрoде или в лесу, тo скoрoсть ветра занижена на 2-4 м/с пo сравнению с oткрытым местoм. Скoрoсть ветра над акватoриями крупных рек и oзёр, а также на вершинах хoлмoв на 2-5 м/с выше, чем в oбычных услoвиях.
Атмoсфернoе давление в разных тoчках местнoсти мoжет значительнo oтличаться oт давления на метеoстанции, в зависимoсти oт услoвий рельефа (при пoдъёме на 10 м давление пoнижается примернo на 1 мм рт.ст.).